| time (UTC) | temp C | wind direction | speed KPH | gust KPH | rain 1hr cm | rain 24hr cm | rain mn cm | humidity % | barometer mb |
| 20260507110015 | 10 | 173 | 0.0 | 0.0 | 0.00 | 0.00 | 0.00 | 85 | 1021.0 |
| 20260507105504 | 10 | 173 | 0.0 | 1.6 | 0.00 | 0.00 | 0.00 | 85 | 1021.0 |
| 20260507105003 | 10 | 173 | 0.0 | 1.6 | 0.00 | 0.00 | 0.00 | 85 | 1021.0 |
| 20260507104514 | 10 | 173 | 0.0 | 0.0 | 0.00 | 0.00 | 0.00 | 86 | 1021.0 |
| 20260507104010 | 10 | 173 | 0.0 | 0.0 | 0.00 | 0.00 | 0.00 | 86 | 1020.9 |
| 20260507103506 | 10 | 173 | 0.0 | 0.0 | 0.00 | 0.00 | 0.00 | 85 | 1021.1 |
| 20260507103021 | 10 | 172 | 0.0 | 0.0 | 0.00 | 0.00 | 0.00 | 85 | 1021.1 |
| 20260507102506 | 10 | 172 | 0.0 | 0.0 | 0.00 | 0.00 | 0.00 | 86 | 1021.2 |
| 20260507102008 | 10 | 173 | 0.0 | 0.0 | 0.00 | 0.00 | 0.00 | 86 | 1021.1 |
| 20260507101525 | 10 | 172 | 0.0 | 0.0 | 0.00 | 0.00 | 0.00 | 86 | 1021.2 |
| 20260507101008 | 10 | 172 | 0.0 | 3.2 | 0.00 | 0.00 | 0.00 | 86 | 1021.2 |
| 20260507100508 | 10 | 173 | 0.0 | 3.2 | 0.00 | 0.00 | 0.00 | 87 | 1021.1 |
| 20260507100026 | 10 | 173 | 0.0 | 3.2 | 0.00 | 0.00 | 0.00 | 87 | 1021.2 |
| 20260507095503 | 10 | 172 | 0.0 | 3.2 | 0.00 | 0.00 | 0.00 | 87 | 1021.2 |
| 20260507095003 | 10 | 173 | 0.0 | 3.2 | 0.00 | 0.00 | 0.00 | 87 | 1021.1 |
| 20260507094511 | 10 | 173 | 0.0 | 0.0 | 0.00 | 0.00 | 0.00 | 87 | 1021.1 |
| 20260507094003 | 10 | 173 | 0.0 | 0.0 | 0.00 | 0.00 | 0.00 | 87 | 1021.0 |
| 20260507093508 | 10 | 173 | 0.0 | 0.0 | 0.00 | 0.00 | 0.00 | 87 | 1021.1 |
| 20260507093014 | 10 | 173 | 0.0 | 0.0 | 0.00 | 0.00 | 0.00 | 87 | 1021.1 |
| 20260507092513 | 10 | 172 | 0.0 | 0.0 | 0.00 | 0.00 | 0.00 | 87 | 1021.1 |
| 20260507092010 | 10 | 173 | 0.0 | 0.0 | 0.00 | 0.00 | 0.00 | 88 | 1021.1 |
| 20260507091519 | 10 | 173 | 0.0 | 0.0 | 0.00 | 0.00 | 0.00 | 88 | 1021.1 |
| 20260507091009 | 10 | 172 | 0.0 | 0.0 | 0.00 | 0.00 | 0.00 | 88 | 1021.1 |
| 20260507090511 | 9 | 173 | 0.0 | 3.2 | 0.00 | 0.00 | 0.00 | 88 | 1021.1 |
| 20260507090024 | 10 | 172 | 0.0 | 3.2 | 0.00 | 0.00 | 0.00 | 88 | 1021.1 |
| 20260507085508 | 9 | 173 | 0.0 | 3.2 | 0.00 | 0.00 | 0.00 | 88 | 1021.2 |
| 20260507085007 | 10 | 172 | 0.0 | 3.2 | 0.00 | 0.00 | 0.00 | 88 | 1021.1 |
| 20260507084539 | 10 | 173 | 0.0 | 3.2 | 0.00 | 0.00 | 0.00 | 87 | 1021.1 |
| 20260507084011 | 10 | 173 | 0.0 | 3.2 | 0.00 | 0.00 | 0.00 | 87 | 1021.1 |
| 20260507083507 | 10 | 173 | 0.0 | 3.2 | 0.00 | 0.00 | 0.00 | 87 | 1021.1 |
| 20260507083012 | 10 | 173 | 0.0 | 3.2 | 0.00 | 0.00 | 0.00 | 87 | 1021.1 |
| 20260507082507 | 10 | 173 | 0.0 | 3.2 | 0.00 | 0.00 | 0.00 | 87 | 1021.2 |
| 20260507082008 | 10 | 193 | 0.0 | 1.6 | 0.00 | 0.00 | 0.00 | 87 | 1021.2 |
| 20260507081532 | 10 | 193 | 0.0 | 3.2 | 0.00 | 0.00 | 0.00 | 87 | 1021.2 |
| 20260507081007 | 10 | 193 | 0.0 | 3.2 | 0.00 | 0.00 | 0.00 | 87 | 1021.1 |
| 20260507080510 | 10 | 188 | 0.0 | 3.2 | 0.00 | 0.00 | 0.00 | 87 | 1021.2 |
| 20260507080024 | 10 | 157 | 0.0 | 3.2 | 0.00 | 0.00 | 0.00 | 87 | 1021.1 |
| 20260507075506 | 10 | 203 | 0.0 | 0.0 | 0.00 | 0.00 | 0.00 | 87 | 1021.1 |
| 20260507075007 | 10 | 207 | 0.0 | 0.0 | 0.00 | 0.00 | 0.00 | 87 | 1021.1 |
| 20260507074503 | 10 | 207 | 0.0 | 4.8 | 0.00 | 0.00 | 0.00 | 87 | 1021.3 |
| 20260507074004 | 10 | 195 | 0.0 | 4.8 | 0.00 | 0.00 | 0.00 | 87 | 1021.2 |
| 20260507073505 | 10 | 197 | 1.6 | 3.2 | 0.00 | 0.00 | 0.00 | 87 | 1021.3 |
| 20260507073005 | 10 | 205 | 0.0 | 8.0 | 0.00 | 0.00 | 0.00 | 88 | 1021.2 |
| 20260507072504 | 10 | 202 | 1.6 | 8.0 | 0.00 | 0.00 | 0.00 | 87 | 1021.2 |
| 20260507072003 | 10 | 219 | 3.2 | 8.0 | 0.00 | 0.00 | 0.00 | 88 | 1021.2 |
| 20260507071506 | 10 | 182 | 0.0 | 3.2 | 0.00 | 0.00 | 0.00 | 88 | 1021.1 |
| 20260507071004 | 10 | 229 | 0.0 | 6.4 | 0.00 | 0.00 | 0.00 | 88 | 1021.1 |
| 20260507070504 | 10 | 217 | 1.6 | 6.4 | 0.00 | 0.00 | 0.00 | 88 | 1021.1 |
| 20260507070011 | 10 | 182 | 0.0 | 4.8 | 0.00 | 0.00 | 0.00 | 88 | 1021.1 |
| 20260507065505 | 10 | 181 | 0.0 | 4.8 | 0.00 | 0.00 | 0.00 | 88 | 1021.2 |
| 20260507065003 | 10 | 188 | 0.0 | 4.8 | 0.00 | 0.00 | 0.00 | 89 | 1021.1 |
| 20260507064504 | 10 | 207 | 0.0 | 8.0 | 0.00 | 0.00 | 0.00 | 89 | 1021.3 |
| 20260507064003 | 10 | 199 | 1.6 | 8.0 | 0.00 | 0.00 | 0.00 | 89 | 1021.1 |
| 20260507063507 | 10 | 173 | 1.6 | 8.0 | 0.00 | 0.00 | 0.00 | 89 | 1021.2 |
| 20260507063008 | 10 | 186 | 0.0 | 11.3 | 0.00 | 0.00 | 0.00 | 89 | 1021.2 |
| 20260507062503 | 10 | 220 | 0.0 | 11.3 | 0.00 | 0.00 | 0.00 | 89 | 1021.3 |
| 20260507062004 | 10 | 183 | 0.0 | 6.4 | 0.00 | 0.00 | 0.00 | 89 | 1021.2 |
| 20260507061507 | 10 | 199 | 3.2 | 6.4 | 0.00 | 0.00 | 0.00 | 89 | 1021.3 |
| 20260507061004 | 10 | 194 | 0.0 | 9.7 | 0.00 | 0.00 | 0.00 | 89 | 1021.3 |
| 20260507060503 | 10 | 178 | 3.2 | 9.7 | 0.00 | 0.00 | 0.00 | 89 | 1021.3 |
| 20260507060006 | 10 | 187 | 0.0 | 0.0 | 0.00 | 0.00 | 0.00 | 89 | 1021.2 |
| 20260507055504 | 10 | 188 | 0.0 | 4.8 | 0.00 | 0.00 | 0.00 | 89 | 1021.3 |
| 20260507055006 | 10 | 202 | 0.0 | 4.8 | 0.00 | 0.00 | 0.00 | 89 | 1021.3 |
| 20260507054504 | 10 | 192 | 0.0 | 8.0 | 0.00 | 0.00 | 0.00 | 89 | 1021.3 |
| 20260507054005 | 10 | 192 | 3.2 | 8.0 | 0.00 | 0.00 | 0.00 | 89 | 1021.2 |
| 20260507053504 | 10 | 177 | 1.6 | 6.4 | 0.00 | 0.00 | 0.00 | 89 | 1021.2 |
| 20260507053008 | 10 | 190 | 3.2 | 9.7 | 0.00 | 0.00 | 0.00 | 88 | 1021.3 |
| 20260507052504 | 11 | 217 | 3.2 | 9.7 | 0.00 | 0.00 | 0.00 | 88 | 1021.3 |
| 20260507052004 | 11 | 212 | 0.0 | 8.0 | 0.00 | 0.00 | 0.00 | 87 | 1021.3 |
| 20260507051508 | 11 | 199 | 0.0 | 9.7 | 0.00 | 0.00 | 0.00 | 87 | 1021.4 |
| 20260507051006 | 11 | 202 | 0.0 | 9.7 | 0.00 | 0.00 | 0.00 | 86 | 1021.3 |
| 20260507050503 | 11 | 211 | 0.0 | 4.8 | 0.00 | 0.00 | 0.00 | 86 | 1021.4 |
| 20260507050012 | 11 | 201 | 0.0 | 3.2 | 0.00 | 0.00 | 0.00 | 86 | 1021.4 |
| 20260507045504 | 11 | 196 | 0.0 | 9.7 | 0.00 | 0.00 | 0.00 | 85 | 1021.4 |
| 20260507045004 | 11 | 227 | 3.2 | 9.7 | 0.00 | 0.00 | 0.00 | 85 | 1021.5 |
| 20260507044509 | 11 | 209 | 0.0 | 9.7 | 0.00 | 0.00 | 0.00 | 85 | 1021.5 |
| 20260507044006 | 11 | 192 | 1.6 | 9.7 | 0.00 | 0.00 | 0.00 | 84 | 1021.4 |
| 20260507043504 | 11 | 309 | 0.0 | 4.8 | 0.00 | 0.00 | 0.00 | 84 | 1021.4 |
| 20260507043010 | 11 | 203 | 1.6 | 4.8 | 0.00 | 0.00 | 0.00 | 84 | 1021.4 |
| 20260507042505 | 11 | 217 | 0.0 | 4.8 | 0.00 | 0.00 | 0.00 | 83 | 1021.3 |
| 20260507042002 | 11 | 203 | 1.6 | 4.8 | 0.00 | 0.00 | 0.00 | 82 | 1021.3 |
| 20260507041508 | 11 | 218 | 0.0 | 3.2 | 0.00 | 0.00 | 0.00 | 82 | 1021.3 |
| 20260507041006 | 11 | 199 | 0.0 | 3.2 | 0.00 | 0.00 | 0.00 | 82 | 1021.3 |
| 20260507040506 | 11 | 199 | 0.0 | 1.6 | 0.00 | 0.00 | 0.00 | 82 | 1021.3 |
| 20260507040010 | 11 | 198 | 0.0 | 3.2 | 0.00 | 0.00 | 0.00 | 82 | 1021.3 |
| 20260507035508 | 11 | 198 | 0.0 | 3.2 | 0.00 | 0.00 | 0.00 | 82 | 1021.3 |
| 20260507035007 | 12 | 198 | 0.0 | 1.6 | 0.00 | 0.00 | 0.00 | 82 | 1021.1 |
| 20260507034521 | 12 | 212 | 0.0 | 0.0 | 0.00 | 0.00 | 0.00 | 82 | 1021.1 |
| 20260507034003 | 12 | 211 | 0.0 | 0.0 | 0.00 | 0.00 | 0.00 | 81 | 1021.1 |
| 20260507033507 | 12 | 165 | 0.0 | 3.2 | 0.00 | 0.00 | 0.00 | 81 | 1021.1 |
| 20260507033015 | 12 | 151 | 0.0 | 3.2 | 0.00 | 0.00 | 0.00 | 81 | 1021.1 |
| 20260507032509 | 12 | 102 | 0.0 | 3.2 | 0.00 | 0.00 | 0.00 | 81 | 1020.9 |
| 20260507032004 | 12 | 302 | 0.0 | 3.2 | 0.00 | 0.00 | 0.00 | 81 | 1020.8 |
| 20260507031507 | 12 | 292 | 0.0 | 3.2 | 0.00 | 0.00 | 0.00 | 80 | 1020.7 |
| 20260507031006 | 12 | 292 | 0.0 | 1.6 | 0.00 | 0.00 | 0.00 | 80 | 1020.7 |
| 20260507030509 | 12 | 263 | 0.0 | 1.6 | 0.00 | 0.00 | 0.00 | 80 | 1020.7 |
| 20260507030016 | 12 | 214 | 0.0 | 8.0 | 0.00 | 0.00 | 0.00 | 80 | 1020.7 |
| 20260507025505 | 12 | 215 | 0.0 | 8.0 | 0.00 | 0.00 | 0.00 | 79 | 1020.6 |
| 20260507025004 | 12 | 208 | 0.0 | 4.8 | 0.00 | 0.00 | 0.00 | 79 | 1020.8 |
| 20260507024519 | 12 | 236 | 1.6 | 4.8 | 0.00 | 0.00 | 0.00 | 79 | 1020.8 |
| 20260507024003 | 12 | 162 | 0.0 | 4.8 | 0.00 | 0.00 | 0.00 | 79 | 1020.7 |
| 20260507023503 | 12 | 133 | 0.0 | 3.2 | 0.00 | 0.00 | 0.00 | 79 | 1020.7 |
| 20260507023010 | 12 | 196 | 1.6 | 4.8 | 0.00 | 0.00 | 0.00 | 79 | 1020.6 |
| 20260507022507 | 12 | 125 | 0.0 | 12.9 | 0.00 | 0.00 | 0.00 | 78 | 1020.7 |
| 20260507022006 | 12 | 295 | 3.2 | 12.9 | 0.00 | 0.00 | 0.00 | 78 | 1020.6 |
| 20260507021513 | 12 | 141 | 0.0 | 3.2 | 0.00 | 0.00 | 0.00 | 78 | 1020.5 |
| 20260507021008 | 12 | 152 | 0.0 | 3.2 | 0.00 | 0.00 | 0.00 | 78 | 1020.5 |
| 20260507020505 | 12 | 190 | 0.0 | 3.2 | 0.00 | 0.00 | 0.00 | 78 | 1020.5 |
| 20260507020008 | 12 | 196 | 1.6 | 3.2 | 0.00 | 0.00 | 0.00 | 77 | 1020.6 |
| 20260507015504 | 13 | 242 | 1.6 | 3.2 | 0.00 | 0.00 | 0.00 | 78 | 1020.6 |
| 20260507015008 | 13 | 229 | 0.0 | 3.2 | 0.00 | 0.00 | 0.00 | 77 | 1020.5 |
| 20260507014513 | 13 | 86 | 0.0 | 6.4 | 0.00 | 0.00 | 0.00 | 77 | 1020.5 |
| 20260507014004 | 13 | 197 | 0.0 | 6.4 | 0.00 | 0.00 | 0.00 | 77 | 1020.6 |
| 20260507013503 | 13 | 205 | 0.0 | 6.4 | 0.00 | 0.00 | 0.00 | 77 | 1020.6 |
| 20260507013020 | 13 | 213 | 0.0 | 6.4 | 0.00 | 0.00 | 0.00 | 77 | 1020.5 |
| 20260507012507 | 13 | 226 | 3.2 | 11.3 | 0.00 | 0.00 | 0.00 | 76 | 1020.6 |
| 20260507012008 | 13 | 189 | 4.8 | 11.3 | 0.00 | 0.00 | 0.00 | 76 | 1020.6 |
| 20260507011525 | 13 | 175 | 3.2 | 8.0 | 0.00 | 0.00 | 0.00 | 75 | 1020.6 |
| 20260507011006 | 13 | 224 | 1.6 | 3.2 | 0.00 | 0.00 | 0.00 | 76 | 1020.5 |
| 20260507010507 | 13 | 143 | 0.0 | 6.4 | 0.00 | 0.00 | 0.00 | 76 | 1020.6 |
| 20260507010015 | 13 | 85 | 1.6 | 8.0 | 0.00 | 0.00 | 0.00 | 77 | 1020.6 |
| 20260507005505 | 13 | 197 | 1.6 | 8.0 | 0.00 | 0.00 | 0.00 | 76 | 1020.7 |
| 20260507005010 | 13 | 193 | 1.6 | 8.0 | 0.00 | 0.00 | 0.00 | 76 | 1020.7 |
| 20260507004512 | 13 | 134 | 1.6 | 6.4 | 0.00 | 0.00 | 0.00 | 76 | 1020.7 |
| 20260507004006 | 13 | 288 | 1.6 | 6.4 | 0.00 | 0.00 | 0.00 | 75 | 1020.7 |
| 20260507003508 | 13 | 150 | 1.6 | 4.8 | 0.00 | 0.00 | 0.00 | 75 | 1020.7 |
| 20260507003013 | 13 | 155 | 0.0 | 4.8 | 0.00 | 0.00 | 0.00 | 76 | 1020.7 |
| 20260507002509 | 13 | 203 | 0.0 | 9.7 | 0.00 | 0.00 | 0.00 | 75 | 1020.7 |
| 20260507002008 | 13 | 248 | 0.0 | 9.7 | 0.00 | 0.00 | 0.00 | 75 | 1020.7 |
| 20260507001507 | 13 | 97 | 0.0 | 9.7 | 0.00 | 0.00 | 0.00 | 75 | 1020.7 |
| 20260507001001 | 13 | 241 | 1.6 | 9.7 | 0.00 | 0.00 | 0.00 | 75 | 1020.6 |
| 20260507000504 | 13 | 328 | 1.6 | 3.2 | 0.00 | 0.00 | 0.00 | 75 | 1020.6 |
| 20260507000002 | 13 | 199 | 1.6 | 8.0 | 0.00 | 0.00 | 0.00 | 76 | 1020.7 |
| 20260506235502 | 13 | 212 | 0.0 | 8.0 | 0.00 | 0.00 | 0.00 | 76 | 1020.7 |
| 20260506235006 | 13 | 106 | 0.0 | 4.8 | 0.00 | 0.00 | 0.00 | 75 | 1020.7 |
| 20260506234509 | 13 | 282 | 1.6 | 8.0 | 0.00 | 0.00 | 0.00 | 74 | 1020.7 |
| 20260506234005 | 13 | 208 | 0.0 | 8.0 | 0.00 | 0.00 | 0.00 | 75 | 1020.7 |
| 20260506233506 | 13 | 132 | 1.6 | 6.4 | 0.00 | 0.00 | 0.00 | 75 | 1020.7 |
| 20260506233017 | 13 | 160 | 1.6 | 6.4 | 0.00 | 0.00 | 0.00 | 75 | 1020.8 |
| 20260506232504 | 13 | 275 | 0.0 | 6.4 | 0.00 | 0.00 | 0.00 | 74 | 1020.8 |
| 20260506232005 | 13 | 281 | 0.0 | 8.0 | 0.00 | 0.00 | 0.00 | 75 | 1020.8 |
| 20260506231502 | 13 | 213 | 0.0 | 8.0 | 0.00 | 0.00 | 0.00 | 74 | 1020.9 |
| 20260506231001 | 13 | 110 | 1.6 | 4.8 | 0.00 | 0.00 | 0.00 | 75 | 1020.9 |
| 20260506230504 | 13 | 186 | 1.6 | 4.8 | 0.00 | 0.00 | 0.00 | 75 | 1020.9 |
| 20260506230006 | 13 | 284 | 1.6 | 6.4 | 0.00 | 0.00 | 0.00 | 74 | 1020.9 |
| 20260506225502 | 13 | 205 | 1.6 | 8.0 | 0.00 | 0.00 | 0.00 | 74 | 1020.8 |
| 20260506225002 | 13 | 242 | 1.6 | 8.0 | 0.00 | 0.00 | 0.00 | 74 | 1020.9 |
| 20260506224506 | 13 | 204 | 3.2 | 8.0 | 0.00 | 0.00 | 0.00 | 74 | 1020.9 |
| 20260506224005 | 13 | 196 | 1.6 | 4.8 | 0.00 | 0.00 | 0.00 | 73 | 1020.9 |
| 20260506223506 | 13 | 182 | 1.6 | 6.4 | 0.00 | 0.00 | 0.00 | 74 | 1020.9 |
| 20260506223010 | 13 | 211 | 1.6 | 6.4 | 0.00 | 0.00 | 0.00 | 74 | 1020.9 |
| 20260506222507 | 13 | 315 | 1.6 | 8.0 | 0.00 | 0.00 | 0.00 | 74 | 1020.8 |
| 20260506222010 | 13 | 202 | 1.6 | 11.3 | 0.00 | 0.00 | 0.00 | 75 | 1021.0 |
| 20260506221517 | 13 | 189 | 1.6 | 11.3 | 0.00 | 0.00 | 0.00 | 74 | 1021.1 |
| 20260506221010 | 13 | 308 | 1.6 | 8.0 | 0.00 | 0.00 | 0.00 | 74 | 1021.2 |
| 20260506220507 | 13 | 217 | 3.2 | 12.9 | 0.00 | 0.00 | 0.00 | 74 | 1021.1 |
| 20260506220003 | 13 | 239 | 3.2 | 16.1 | 0.00 | 0.00 | 0.00 | 75 | 1021.1 |
| 20260506215504 | 13 | 182 | 1.6 | 16.1 | 0.00 | 0.00 | 0.00 | 76 | 1021.1 |
| 20260506215006 | 13 | 311 | 3.2 | 9.7 | 0.00 | 0.00 | 0.00 | 76 | 1021.1 |
| 20260506214507 | 13 | 179 | 1.6 | 9.7 | 0.00 | 0.00 | 0.00 | 76 | 1021.1 |
| 20260506214003 | 13 | 192 | 1.6 | 8.0 | 0.00 | 0.00 | 0.00 | 75 | 1021.2 |
| 20260506213505 | 13 | 202 | 1.6 | 8.0 | 0.00 | 0.00 | 0.00 | 75 | 1021.2 |
| 20260506213011 | 13 | 154 | 0.0 | 6.4 | 0.00 | 0.00 | 0.00 | 76 | 1021.1 |
| 20260506212506 | 13 | 199 | 1.6 | 8.0 | 0.00 | 0.00 | 0.00 | 75 | 1021.1 |
| 20260506212009 | 13 | 209 | 1.6 | 8.0 | 0.00 | 0.00 | 0.00 | 77 | 1021.1 |
| 20260506211512 | 13 | 180 | 0.0 | 4.8 | 0.00 | 0.00 | 0.00 | 75 | 1021.1 |
| 20260506211006 | 13 | 180 | 0.0 | 4.8 | 0.00 | 0.00 | 0.00 | 76 | 1021.1 |
| 20260506210515 | 13 | 229 | 0.0 | 6.4 | 0.00 | 0.00 | 0.00 | 77 | 1021.1 |
| 20260506210043 | 13 | 209 | 0.0 | 6.4 | 0.00 | 0.00 | 0.00 | 76 | 1021.1 |
| 20260506205509 | 13 | 238 | 0.0 | 6.4 | 0.00 | 0.00 | 0.00 | 76 | 1021.0 |
| 20260506205006 | 13 | 186 | 1.6 | 4.8 | 0.00 | 0.00 | 0.00 | 76 | 1021.0 |
| 20260506204524 | 13 | 183 | 1.6 | 8.0 | 0.00 | 0.00 | 0.00 | 76 | 1021.0 |
| 20260506204004 | 13 | 184 | 0.0 | 8.0 | 0.00 | 0.00 | 0.00 | 77 | 1021.1 |
| 20260506203503 | 13 | 218 | 3.2 | 8.0 | 0.00 | 0.00 | 0.00 | 77 | 1021.1 |
| 20260506203009 | 13 | 24 | 1.6 | 4.8 | 0.00 | 0.00 | 0.00 | 76 | 1021.0 |
| 20260506202503 | 13 | 253 | 0.0 | 4.8 | 0.00 | 0.00 | 0.00 | 77 | 1021.0 |
| 20260506202007 | 13 | 175 | 1.6 | 4.8 | 0.00 | 0.00 | 0.00 | 76 | 1021.0 |
| 20260506201519 | 13 | 229 | 1.6 | 6.4 | 0.00 | 0.00 | 0.00 | 77 | 1020.9 |
| 20260506201007 | 12 | 179 | 0.0 | 6.4 | 0.00 | 0.00 | 0.00 | 77 | 1021.0 |
| 20260506200507 | 13 | 205 | 0.0 | 6.4 | 0.00 | 0.00 | 0.00 | 78 | 1020.9 |
| 20260506200016 | 12 | 101 | 1.6 | 6.4 | 0.00 | 0.00 | 0.00 | 78 | 1020.9 |
| 20260506195507 | 12 | 213 | 1.6 | 6.4 | 0.00 | 0.00 | 0.00 | 78 | 1020.9 |
| 20260506195008 | 12 | 212 | 1.6 | 3.2 | 0.00 | 0.00 | 0.00 | 78 | 1020.8 |
| 20260506194523 | 12 | 165 | 0.0 | 6.4 | 0.00 | 0.00 | 0.00 | 78 | 1020.8 |
| 20260506194008 | 12 | 215 | 1.6 | 6.4 | 0.00 | 0.00 | 0.00 | 79 | 1020.7 |
| 20260506193511 | 12 | 204 | 3.2 | 6.4 | 0.00 | 0.00 | 0.00 | 79 | 1020.7 |
| 20260506193033 | 12 | 117 | 0.0 | 6.4 | 0.00 | 0.00 | 0.00 | 80 | 1020.7 |
| 20260506192503 | 12 | 205 | 1.6 | 8.0 | 0.00 | 0.00 | 0.00 | 79 | 1020.7 |
| 20260506192006 | 12 | 221 | 3.2 | 8.0 | 0.00 | 0.00 | 0.00 | 80 | 1020.7 |
| 20260506191512 | 12 | 221 | 0.0 | 6.4 | 0.00 | 0.00 | 0.00 | 81 | 1020.7 |
| 20260506191004 | 12 | 190 | 1.6 | 6.4 | 0.00 | 0.00 | 0.00 | 80 | 1020.7 |
| 20260506190509 | 12 | 195 | 1.6 | 6.4 | 0.00 | 0.00 | 0.00 | 81 | 1020.7 |
| 20260506190017 | 12 | 188 | 3.2 | 6.4 | 0.00 | 0.00 | 0.00 | 81 | 1020.7 |
| 20260506185510 | 12 | 161 | 1.6 | 6.4 | 0.00 | 0.00 | 0.00 | 82 | 1020.7 |
| 20260506185007 | 12 | 132 | 1.6 | 4.8 | 0.00 | 0.00 | 0.00 | 81 | 1020.7 |
| 20260506184527 | 12 | 199 | 0.0 | 8.0 | 0.00 | 0.00 | 0.00 | 82 | 1020.7 |
| 20260506184009 | 12 | 198 | 0.0 | 8.0 | 0.00 | 0.00 | 0.00 | 84 | 1020.7 |
| 20260506183512 | 11 | 209 | 1.6 | 6.4 | 0.00 | 0.00 | 0.00 | 83 | 1020.7 |
| 20260506183024 | 11 | 197 | 0.0 | 4.8 | 0.00 | 0.00 | 0.00 | 83 | 1020.7 |
| 20260506182511 | 12 | 190 | 0.0 | 3.2 | 0.00 | 0.00 | 0.00 | 84 | 1020.8 |
| 20260506182009 | 12 | 198 | 1.6 | 4.8 | 0.00 | 0.00 | 0.00 | 85 | 1020.8 |
| 20260506181536 | 11 | 190 | 1.6 | 4.8 | 0.00 | 0.00 | 0.00 | 84 | 1020.6 |
| 20260506181004 | 11 | 173 | 1.6 | 4.8 | 0.00 | 0.00 | 0.00 | 85 | 1020.5 |
| 20260506180504 | 11 | 167 | 0.0 | 9.7 | 0.00 | 0.00 | 0.00 | 86 | 1020.5 |
| 20260506180014 | 11 | 198 | 1.6 | 9.7 | 0.00 | 0.00 | 0.00 | 87 | 1020.5 |
| 20260506175505 | 11 | 191 | 1.6 | 6.4 | 0.00 | 0.00 | 0.00 | 86 | 1020.6 |
| 20260506175005 | 11 | 223 | 0.0 | 4.8 | 0.00 | 0.00 | 0.00 | 87 | 1020.5 |
| 20260506174519 | 11 | 228 | 0.0 | 6.4 | 0.00 | 0.00 | 0.00 | 88 | 1020.5 |
| 20260506174006 | 11 | 209 | 3.2 | 9.7 | 0.00 | 0.00 | 0.00 | 88 | 1020.5 |
| 20260506173509 | 11 | 201 | 1.6 | 9.7 | 0.00 | 0.00 | 0.00 | 88 | 1020.7 |
| 20260506173020 | 11 | 201 | 0.0 | 9.7 | 0.00 | 0.00 | 0.00 | 88 | 1020.5 |
| 20260506172512 | 11 | 220 | 1.6 | 8.0 | 0.00 | 0.00 | 0.00 | 88 | 1020.6 |
| 20260506172011 | 11 | 230 | 0.0 | 4.8 | 0.00 | 0.00 | 0.00 | 89 | 1020.6 |
| 20260506171529 | 11 | 188 | 0.0 | 6.4 | 0.00 | 0.00 | 0.00 | 89 | 1020.7 |
| 20260506171011 | 11 | 180 | 1.6 | 8.0 | 0.00 | 0.00 | 0.00 | 89 | 1020.6 |
| 20260506170512 | 11 | 170 | 0.0 | 8.0 | 0.00 | 0.00 | 0.00 | 90 | 1020.5 |
| 20260506170029 | 11 | 215 | 3.2 | 8.0 | 0.00 | 0.00 | 0.00 | 89 | 1020.5 |
| 20260506165505 | 11 | 198 | 0.0 | 8.0 | 0.00 | 0.00 | 0.00 | 90 | 1020.5 |
| 20260506165004 | 11 | 176 | 1.6 | 4.8 | 0.00 | 0.00 | 0.00 | 91 | 1020.5 |
| 20260506164535 | 11 | 184 | 1.6 | 8.0 | 0.00 | 0.00 | 0.00 | 91 | 1020.4 |
| 20260506164005 | 11 | 159 | 0.0 | 8.0 | 0.00 | 0.00 | 0.00 | 92 | 1020.3 |
| 20260506163507 | 11 | 200 | 3.2 | 8.0 | 0.00 | 0.00 | 0.00 | 92 | 1020.2 |
| 20260506163022 | 10 | 192 | 0.0 | 4.8 | 0.00 | 0.00 | 0.00 | 92 | 1020.1 |
| 20260506162510 | 10 | 200 | 1.6 | 4.8 | 0.00 | 0.00 | 0.00 | 92 | 1020.0 |
| 20260506162008 | 10 | 168 | 1.6 | 9.7 | 0.00 | 0.00 | 0.00 | 92 | 1020.0 |
| 20260506161524 | 10 | 187 | 3.2 | 8.0 | 0.00 | 0.00 | 0.00 | 92 | 1019.9 |
| 20260506161010 | 10 | 207 | 0.0 | 8.0 | 0.00 | 0.00 | 0.00 | 92 | 1019.8 |
| 20260506160510 | 10 | 200 | 1.6 | 4.8 | 0.00 | 0.00 | 0.00 | 92 | 1019.9 |
| 20260506160030 | 10 | 191 | 0.0 | 8.0 | 0.00 | 0.00 | 0.00 | 92 | 1020.0 |
| 20260506155509 | 10 | 213 | 0.0 | 6.4 | 0.00 | 0.00 | 0.00 | 92 | 1020.0 |
| 20260506155010 | 10 | 190 | 3.2 | 6.4 | 0.00 | 0.00 | 0.00 | 92 | 1020.1 |
| 20260506154529 | 10 | 216 | 0.0 | 3.2 | 0.00 | 0.00 | 0.00 | 92 | 1020.2 |
| 20260506154008 | 10 | 245 | 0.0 | 3.2 | 0.00 | 0.00 | 0.00 | 92 | 1020.3 |
| 20260506153511 | 10 | 88 | 0.0 | 3.2 | 0.00 | 0.00 | 0.00 | 92 | 1020.3 |
| 20260506153014 | 10 | 209 | 0.0 | 3.2 | 0.00 | 0.00 | 0.00 | 92 | 1020.2 |
| 20260506152508 | 10 | 177 | 1.6 | 3.2 | 0.00 | 0.00 | 0.00 | 91 | 1020.1 |
| 20260506152009 | 10 | 191 | 0.0 | 3.2 | 0.00 | 0.00 | 0.00 | 92 | 1020.0 |
| 20260506151502 | 10 | 190 | 0.0 | 6.4 | 0.00 | 0.00 | 0.00 | 92 | 1019.8 |
| 20260506151001 | 10 | 195 | 1.6 | 8.0 | 0.00 | 0.00 | 0.00 | 91 | 1019.7 |
| 20260506150502 | 10 | 196 | 3.2 | 8.0 | 0.00 | 0.00 | 0.00 | 91 | 1019.8 |
| 20260506150005 | 10 | 218 | 0.0 | 6.4 | 0.00 | 0.00 | 0.00 | 91 | 1019.9 |
| 20260506145505 | 10 | 184 | 0.0 | 3.2 | 0.00 | 0.00 | 0.00 | 92 | 1019.9 |
| 20260506145008 | 10 | 302 | 0.0 | 3.2 | 0.00 | 0.00 | 0.00 | 92 | 1020.0 |
| 20260506144521 | 10 | 36 | 0.0 | 3.2 | 0.00 | 0.00 | 0.00 | 92 | 1020.0 |
| 20260506144008 | 10 | 276 | 0.0 | 8.0 | 0.00 | 0.00 | 0.00 | 91 | 1020.0 |
| 20260506143506 | 10 | 255 | 0.0 | 8.0 | 0.00 | 0.00 | 0.00 | 91 | 1019.9 |
| 20260506143017 | 10 | 252 | 0.0 | 4.8 | 0.00 | 0.00 | 0.00 | 91 | 1019.7 |
| 20260506142505 | 10 | 222 | 0.0 | 4.8 | 0.00 | 0.00 | 0.00 | 91 | 1019.8 |
| 20260506142009 | 10 | 211 | 0.0 | 8.0 | 0.00 | 0.00 | 0.00 | 91 | 1019.6 |
| 20260506141528 | 10 | 200 | 1.6 | 8.0 | 0.00 | 0.00 | 0.00 | 91 | 1019.5 |
| 20260506141015 | 10 | 201 | 1.6 | 3.2 | 0.00 | 0.00 | 0.00 | 90 | 1019.7 |
| 20260506140502 | 10 | 196 | 0.0 | 3.2 | 0.00 | 0.00 | 0.00 | 90 | 1019.7 |
| 20260506140006 | 10 | 188 | 0.0 | 4.8 | 0.00 | 0.00 | 0.00 | 90 | 1019.7 |
| 20260506135503 | 10 | 180 | 0.0 | 8.0 | 0.00 | 0.00 | 0.00 | 90 | 1019.8 |
| 20260506135003 | 10 | 180 | 0.0 | 8.0 | 0.00 | 0.00 | 0.00 | 90 | 1019.6 |
| 20260506134508 | 11 | 105 | 1.6 | 3.2 | 0.00 | 0.00 | 0.00 | 90 | 1019.5 |
| 20260506134003 | 11 | 94 | 0.0 | 3.2 | 0.00 | 0.00 | 0.00 | 90 | 1019.7 |
| 20260506133504 | 11 | 249 | 0.0 | 3.2 | 0.00 | 0.00 | 0.00 | 90 | 1019.6 |
| 20260506133016 | 11 | 209 | 0.0 | 4.8 | 0.00 | 0.00 | 0.00 | 89 | 1019.4 |
| 20260506132507 | 11 | 198 | 0.0 | 4.8 | 0.00 | 0.00 | 0.00 | 89 | 1019.5 |
| 20260506132007 | 11 | 201 | 0.0 | 3.2 | 0.00 | 0.00 | 0.00 | 89 | 1019.5 |
| 20260506131520 | 11 | 199 | 0.0 | 8.0 | 0.00 | 0.00 | 0.00 | 89 | 1019.3 |
| 20260506131006 | 10 | 185 | 1.6 | 8.0 | 0.00 | 0.00 | 0.00 | 89 | 1019.0 |
| 20260506130508 | 11 | 181 | 1.6 | 8.0 | 0.00 | 0.00 | 0.00 | 89 | 1019.2 |
| 20260506130024 | 11 | 200 | 0.0 | 4.8 | 0.00 | 0.00 | 0.00 | 89 | 1019.2 |
| 20260506125510 | 11 | 217 | 0.0 | 3.2 | 0.00 | 0.00 | 0.00 | 89 | 1019.2 |
| 20260506125002 | 11 | 202 | 0.0 | 3.2 | 0.00 | 0.00 | 0.00 | 89 | 1019.2 |
| 20260506124508 | 11 | 202 | 1.6 | 3.2 | 0.00 | 0.00 | 0.00 | 89 | 1019.1 |
| 20260506124006 | 11 | 157 | 0.0 | 3.2 | 0.00 | 0.00 | 0.00 | 89 | 1019.0 |
| 20260506123503 | 11 | 157 | 0.0 | 1.6 | 0.00 | 0.00 | 0.00 | 89 | 1019.0 |
| 20260506123014 | 11 | 185 | 0.0 | 0.0 | 0.00 | 0.00 | 0.00 | 89 | 1019.0 |
| 20260506122505 | 11 | 185 | 0.0 | 0.0 | 0.00 | 0.00 | 0.00 | 89 | 1019.0 |
| 20260506122012 | 11 | 185 | 0.0 | 0.0 | 0.00 | 0.00 | 0.00 | 89 | 1018.9 |
| 20260506121519 | 11 | 179 | 0.0 | 1.6 | 0.00 | 0.00 | 0.00 | 89 | 1018.8 |
| 20260506121009 | 11 | 194 | 0.0 | 3.2 | 0.00 | 0.00 | 0.00 | 89 | 1018.8 |
| 20260506120507 | 11 | 202 | 0.0 | 3.2 | 0.00 | 0.00 | 0.00 | 89 | 1018.8 |
| 20260506120043 | 11 | 186 | 1.6 | 6.4 | 0.00 | 0.00 | 0.00 | 89 | 1018.8 |
| 20260506115512 | 11 | 246 | 0.0 | 6.4 | 0.00 | 0.00 | 0.00 | 89 | 1018.7 |
| 20260506115007 | 11 | 199 | 0.0 | 3.2 | 0.00 | 0.00 | 0.00 | 89 | 1018.7 |
| 20260506114526 | 11 | 200 | 0.0 | 3.2 | 0.00 | 0.00 | 0.00 | 89 | 1018.6 |
| 20260506114012 | 11 | 174 | 0.0 | 3.2 | 0.00 | 0.00 | 0.00 | 89 | 1018.6 |
| 20260506113510 | 11 | 184 | 0.0 | 0.0 | 0.00 | 0.00 | 0.00 | 89 | 1018.6 |
| 20260506113012 | 11 | 199 | 0.0 | 3.2 | 0.00 | 0.00 | 0.00 | 89 | 1018.6 |
| 20260506112504 | 11 | 199 | 0.0 | 3.2 | 0.00 | 0.00 | 0.00 | 88 | 1018.6 |
| 20260506112007 | 11 | 185 | 0.0 | 3.2 | 0.00 | 0.00 | 0.00 | 88 | 1018.6 |
| 20260506111515 | 11 | 180 | 1.6 | 3.2 | 0.00 | 0.00 | 0.00 | 88 | 1018.6 |
| 20260506111003 | 11 | 194 | 0.0 | 3.2 | 0.00 | 0.00 | 0.00 | 88 | 1018.6 |
| 20260506110507 | 11 | 194 | 0.0 | 3.2 | 0.00 | 0.00 | 0.00 | 88 | 1018.6 |